Orbital Elements at Epoch 2459200.5 (2020-Dec-17.0) TDB
Reference: JPL 39 (heliocentric ecliptic J2000)
Element | Value | Uncertainty (1-sigma) | Units |
e | .09929447690162466 | 3.1958e-08 | |
a | 2.621227640963789 | 7.8714e-09 | au |
q | 2.36095421351421 | 8.2261e-08 | au |
i | 9.413112480133424 | 6.678e-07 | deg |
node | 23.53690631992213 | 3.9573e-06 | deg |
peri | 346.7543956479005 | 7.2303e-06 | deg |
M | 178.990499318397 | 5.7599e-06 | deg |
tp | 2458429.804161205346 (2018-Nov-07.30416121) | 2.3069e-05 | TDB |
period | 1550.085077267331 4.24 | 6.9822e-06 1.912e-08 | d yr |
n | .2322453169052176 | 1.0461e-09 | deg/d |
Q | 2.881501068413368 | 8.653e-09 | au |
|
| | Orbit Determination Parameters
Additional Information
|